| time (UTC) | temp F | wind direction | speed MPH | gust MPH | rain 1hr in | rain 24hr in | rain mn in | humidity % | barometer mb |
| 20260831131903 | 65 | 289 | 2.0 | 8.0 | 0.00 | 0.00 | 0.00 | 77 | 1006.2 |
| 20260831131328 | 65 | 300 | 1.0 | 7.0 | 0.00 | 0.00 | 0.00 | 75 | 1006.2 |
| 20260831130835 | 65 | 227 | 1.0 | 5.0 | 0.00 | 0.00 | 0.00 | 76 | 1006.3 |
| 20260831130342 | 65 | 299 | 2.0 | 5.0 | 0.00 | 0.00 | 0.00 | 74 | 1006.3 |
| 20260831125829 | 65 | 195 | 2.0 | 5.0 | 0.00 | 0.00 | 0.00 | 77 | 1006.3 |
| 20260831125324 | 64 | 194 | 1.0 | 7.0 | 0.00 | 0.00 | 0.00 | 81 | 1006.4 |
| 20260831124851 | 64 | 314 | 3.0 | 7.0 | 0.00 | 0.00 | 0.00 | 81 | 1006.4 |
| 20260831124349 | 64 | 267 | 0.0 | 4.0 | 0.00 | 0.00 | 0.00 | 81 | 1006.4 |
| 20260831123830 | 64 | 297 | 1.0 | 6.0 | 0.00 | 0.00 | 0.00 | 81 | 1006.5 |
| 20260831123350 | 64 | 222 | 2.0 | 5.0 | 0.00 | 0.00 | 0.00 | 80 | 1006.4 |
| 20260831122829 | 64 | 250 | 1.0 | 5.0 | 0.00 | 0.00 | 0.00 | 81 | 1006.4 |
| 20260831122339 | 64 | 204 | 3.0 | 5.0 | 0.00 | 0.00 | 0.00 | 81 | 1006.4 |
| 20260831121847 | 64 | 246 | 1.0 | 5.0 | 0.00 | 0.00 | 0.00 | 81 | 1006.4 |
| 20260831121332 | 64 | 182 | 1.0 | 5.0 | 0.00 | 0.00 | 0.00 | 82 | 1006.4 |
| 20260831120831 | 64 | 219 | 1.0 | 5.0 | 0.00 | 0.00 | 0.00 | 82 | 1006.5 |
| 20260831120338 | 64 | 223 | 1.0 | 5.0 | 0.00 | 0.00 | 0.00 | 82 | 1006.6 |
| 20260831115828 | 63 | 200 | 1.0 | 6.0 | 0.00 | 0.00 | 0.00 | 81 | 1006.5 |
| 20260831115328 | 63 | 221 | 2.0 | 6.0 | 0.00 | 0.00 | 0.00 | 81 | 1006.5 |
| 20260831114849 | 63 | 279 | 0.0 | 6.0 | 0.00 | 0.00 | 0.00 | 82 | 1006.5 |
| 20260831114357 | 63 | 271 | 1.0 | 4.0 | 0.00 | 0.00 | 0.00 | 82 | 1006.5 |
| 20260831113824 | 63 | 251 | 0.0 | 4.0 | 0.00 | 0.00 | 0.00 | 82 | 1006.4 |
| 20260831113331 | 64 | 313 | 1.0 | 4.0 | 0.00 | 0.00 | 0.00 | 83 | 1006.4 |
| 20260831112852 | 64 | 250 | 2.0 | 7.0 | 0.00 | 0.00 | 0.00 | 81 | 1006.3 |
| 20260831112400 | 64 | 348 | 2.0 | 7.0 | 0.00 | 0.00 | 0.00 | 80 | 1006.4 |
| 20260831111829 | 64 | 200 | 2.0 | 7.0 | 0.00 | 0.00 | 0.00 | 81 | 1006.3 |
| 20260831111329 | 64 | 223 | 1.0 | 6.0 | 0.00 | 0.00 | 0.00 | 80 | 1006.2 |
| 20260831110837 | 64 | 207 | 1.0 | 7.0 | 0.00 | 0.00 | 0.00 | 81 | 1006.1 |
| 20260831110324 | 64 | 251 | 2.0 | 7.0 | 0.00 | 0.00 | 0.00 | 81 | 1006.1 |
| 20260831105831 | 64 | 268 | 2.0 | 6.0 | 0.00 | 0.00 | 0.00 | 81 | 1006.1 |
| 20260831105337 | 64 | 195 | 1.0 | 6.0 | 0.00 | 0.00 | 0.00 | 83 | 1006.0 |
| 20260831104825 | 64 | 238 | 2.0 | 8.0 | 0.00 | 0.00 | 0.00 | 82 | 1005.9 |
| 20260831104332 | 64 | 284 | 3.0 | 8.0 | 0.00 | 0.00 | 0.00 | 81 | 1005.8 |
| 20260831103840 | 64 | 287 | 2.0 | 9.0 | 0.00 | 0.00 | 0.00 | 80 | 1005.8 |
| 20260831103329 | 65 | 5 | 2.0 | 9.0 | 0.00 | 0.00 | 0.00 | 80 | 1005.8 |
| 20260831102830 | 65 | 244 | 2.0 | 6.0 | 0.00 | 0.00 | 0.00 | 81 | 1005.7 |
| 20260831102330 | 65 | 136 | 2.0 | 6.0 | 0.00 | 0.00 | 0.00 | 81 | 1005.7 |
| 20260831101829 | 65 | 188 | 2.0 | 6.0 | 0.00 | 0.00 | 0.00 | 84 | 1005.7 |
| 20260831101350 | 64 | 265 | 3.0 | 7.0 | 0.00 | 0.00 | 0.00 | 81 | 1005.7 |
| 20260831100831 | 64 | 207 | 3.0 | 7.0 | 0.00 | 0.00 | 0.00 | 82 | 1005.7 |
| 20260831100350 | 63 | 281 | 2.0 | 7.0 | 0.00 | 0.00 | 0.00 | 84 | 1005.7 |
| 20260831095850 | 63 | 232 | 2.0 | 7.0 | 0.00 | 0.00 | 0.00 | 86 | 1005.6 |
| 20260831095330 | 63 | 254 | 1.0 | 7.0 | 0.00 | 0.00 | 0.00 | 86 | 1005.8 |
| 20260831094830 | 63 | 299 | 1.0 | 7.0 | 0.00 | 0.00 | 0.00 | 86 | 1005.8 |
| 20260831094331 | 63 | 227 | 2.0 | 10.0 | 0.00 | 0.00 | 0.00 | 86 | 1005.8 |
| 20260831093830 | 64 | 240 | 2.0 | 10.0 | 0.00 | 0.00 | 0.00 | 85 | 1005.8 |
| 20260831093325 | 64 | 280 | 2.0 | 9.0 | 0.00 | 0.00 | 0.00 | 83 | 1005.8 |
| 20260831092833 | 64 | 217 | 2.0 | 10.0 | 0.00 | 0.00 | 0.00 | 83 | 1005.7 |
| 20260831092340 | 64 | 190 | 4.0 | 10.0 | 0.00 | 0.00 | 0.00 | 84 | 1005.7 |
| 20260831091848 | 64 | 280 | 2.0 | 8.0 | 0.00 | 0.00 | 0.00 | 86 | 1005.6 |
| 20260831091348 | 63 | 179 | 2.0 | 8.0 | 0.00 | 0.00 | 0.00 | 87 | 1005.6 |
| 20260831090855 | 63 | 190 | 5.0 | 14.0 | 0.00 | 0.00 | 0.00 | 85 | 1005.6 |
| 20260831090343 | 63 | 178 | 4.0 | 14.0 | 0.00 | 0.00 | 0.00 | 85 | 1005.6 |
| 20260831085825 | 63 | 203 | 2.0 | 8.0 | 0.00 | 0.00 | 0.00 | 88 | 1005.6 |
| 20260831085325 | 63 | 299 | 2.0 | 8.0 | 0.00 | 0.00 | 0.00 | 89 | 1005.5 |
| 20260831084824 | 63 | 286 | 2.0 | 6.0 | 0.00 | 0.00 | 0.00 | 90 | 1005.5 |
| 20260831084325 | 63 | 170 | 2.0 | 6.0 | 0.00 | 0.00 | 0.00 | 89 | 1005.6 |
| 20260831083846 | 62 | 205 | 2.0 | 8.0 | 0.00 | 0.00 | 0.00 | 89 | 1005.6 |
| 20260831083326 | 63 | 202 | 2.0 | 10.0 | 0.00 | 0.00 | 0.00 | 90 | 1005.6 |
| 20260831082827 | 62 | 338 | 4.0 | 10.0 | 0.00 | 0.00 | 0.00 | 88 | 1005.5 |
| 20260831082329 | 62 | 190 | 3.0 | 9.0 | 0.00 | 0.00 | 0.00 | 90 | 1005.5 |
| 20260831081830 | 62 | 298 | 2.0 | 8.0 | 0.00 | 0.00 | 0.00 | 92 | 1005.5 |
| 20260831081329 | 61 | 306 | 2.0 | 13.0 | 0.00 | 0.00 | 0.00 | 92 | 1005.4 |
| 20260831080830 | 61 | 254 | 3.0 | 16.0 | 0.00 | 0.00 | 0.00 | 92 | 1005.4 |
| 20260831080330 | 61 | 319 | 4.0 | 10.0 | 0.00 | 0.00 | 0.00 | 92 | 1005.5 |
| 20260831075830 | 60 | 246 | 3.0 | 10.0 | 0.00 | 0.00 | 0.00 | 93 | 1005.5 |
| 20260831075330 | 60 | 232 | 4.0 | 9.0 | 0.00 | 0.00 | 0.00 | 94 | 1005.5 |
| 20260831074851 | 60 | 217 | 3.0 | 7.0 | 0.00 | 0.00 | 0.00 | 94 | 1005.4 |
| 20260831074330 | 60 | 227 | 1.0 | 4.0 | 0.00 | 0.00 | 0.00 | 95 | 1005.4 |
| 20260831073850 | 59 | 240 | 1.0 | 5.0 | 0.00 | 0.00 | 0.00 | 94 | 1005.4 |
| 20260831073350 | 59 | 192 | 1.0 | 5.0 | 0.00 | 0.00 | 0.00 | 94 | 1005.4 |
| 20260831072830 | 59 | 333 | 2.0 | 4.0 | 0.00 | 0.00 | 0.00 | 94 | 1005.4 |
| 20260831072331 | 59 | 292 | 1.0 | 4.0 | 0.00 | 0.00 | 0.00 | 94 | 1005.4 |
| 20260831071851 | 59 | 294 | 1.0 | 5.0 | 0.00 | 0.00 | 0.00 | 94 | 1005.3 |
| 20260831071340 | 59 | 292 | 2.0 | 6.0 | 0.00 | 0.00 | 0.00 | 95 | 1005.3 |
| 20260831070828 | 59 | 292 | 2.0 | 9.0 | 0.00 | 0.00 | 0.00 | 95 | 1005.3 |
| 20260831070337 | 59 | 210 | 3.0 | 9.0 | 0.00 | 0.00 | 0.00 | 95 | 1005.4 |
| 20260831065825 | 59 | 156 | 2.0 | 9.0 | 0.00 | 0.00 | 0.00 | 95 | 1005.3 |
| 20260831065348 | 59 | 193 | 2.0 | 9.0 | 0.00 | 0.00 | 0.00 | 95 | 1005.1 |
| 20260831064827 | 59 | 53 | 1.0 | 6.0 | 0.00 | 0.00 | 0.00 | 95 | 1005.2 |
| 20260831064328 | 59 | 205 | 2.0 | 4.0 | 0.00 | 0.00 | 0.00 | 95 | 1005.2 |
| 20260831063835 | 59 | 212 | 1.0 | 5.0 | 0.00 | 0.00 | 0.00 | 95 | 1005.2 |
| 20260831063324 | 59 | 194 | 1.0 | 4.0 | 0.00 | 0.00 | 0.00 | 95 | 1005.2 |
| 20260831062826 | 59 | 178 | 1.0 | 7.0 | 0.00 | 0.00 | 0.00 | 95 | 1005.1 |
| 20260831062326 | 59 | 192 | 3.0 | 7.0 | 0.00 | 0.00 | 0.00 | 95 | 1005.1 |
| 20260831061827 | 59 | 263 | 2.0 | 6.0 | 0.00 | 0.00 | 0.00 | 95 | 1005.0 |
| 20260831061327 | 59 | 186 | 1.0 | 6.0 | 0.00 | 0.00 | 0.00 | 95 | 1004.9 |
| 20260831060835 | 59 | 153 | 1.0 | 9.0 | 0.00 | 0.00 | 0.00 | 95 | 1004.9 |
| 20260831060324 | 59 | 269 | 2.0 | 9.0 | 0.00 | 0.00 | 0.00 | 95 | 1004.8 |
| 20260831055845 | 59 | 294 | 2.0 | 10.0 | 0.00 | 0.00 | 0.00 | 95 | 1004.7 |
| 20260831055325 | 59 | 275 | 2.0 | 7.0 | 0.00 | 0.00 | 0.00 | 95 | 1004.6 |
| 20260831054825 | 59 | 179 | 2.0 | 6.0 | 0.00 | 0.00 | 0.00 | 95 | 1004.6 |
| 20260831054334 | 59 | 178 | 2.0 | 6.0 | 0.00 | 0.00 | 0.00 | 95 | 1004.5 |
| 20260831053824 | 59 | 253 | 1.0 | 4.0 | 0.00 | 0.00 | 0.00 | 95 | 1004.5 |
| 20260831053326 | 59 | 227 | 1.0 | 4.0 | 0.00 | 0.00 | 0.00 | 95 | 1004.5 |
| 20260831052827 | 59 | 59 | 1.0 | 4.0 | 0.00 | 0.00 | 0.00 | 95 | 1004.5 |
| 20260831052348 | 59 | 208 | 0.0 | 6.0 | 0.00 | 0.00 | 0.00 | 95 | 1004.5 |
| 20260831051827 | 59 | 314 | 1.0 | 6.0 | 0.00 | 0.00 | 0.00 | 95 | 1004.5 |
| 20260831051336 | 59 | 119 | 1.0 | 5.0 | 0.00 | 0.00 | 0.00 | 95 | 1004.5 |
| 20260831050825 | 59 | 305 | 0.0 | 5.0 | 0.00 | 0.00 | 0.00 | 95 | 1004.5 |
| 20260831050326 | 59 | 242 | 1.0 | 5.0 | 0.00 | 0.00 | 0.00 | 95 | 1004.4 |
| 20260831045827 | 59 | 248 | 0.0 | 3.0 | 0.00 | 0.00 | 0.00 | 95 | 1004.4 |
| 20260831045336 | 59 | 236 | 1.0 | 3.0 | 0.00 | 0.00 | 0.00 | 95 | 1004.3 |
| 20260831044825 | 59 | 214 | 0.0 | 3.0 | 0.00 | 0.00 | 0.00 | 95 | 1004.3 |
| 20260831044325 | 59 | 186 | 1.0 | 4.0 | 0.00 | 0.00 | 0.00 | 95 | 1004.3 |
| 20260831043835 | 59 | 250 | 1.0 | 4.0 | 0.00 | 0.00 | 0.00 | 95 | 1004.3 |
| 20260831043328 | 59 | 321 | 0.0 | 3.0 | 0.00 | 0.00 | 0.00 | 95 | 1004.2 |
| 20260831042832 | 59 | 238 | 1.0 | 3.0 | 0.00 | 0.00 | 0.00 | 95 | 1004.3 |
| 20260831042324 | 59 | 226 | 1.0 | 4.0 | 0.00 | 0.00 | 0.00 | 95 | 1004.2 |
| 20260831041848 | 59 | 205 | 1.0 | 5.0 | 0.00 | 0.00 | 0.00 | 95 | 1004.2 |
| 20260831041409 | 59 | 207 | 2.0 | 5.0 | 0.00 | 0.00 | 0.00 | 95 | 1004.2 |
| 20260831040826 | 59 | 203 | 1.0 | 5.0 | 0.00 | 0.00 | 0.00 | 95 | 1004.0 |
| 20260831040326 | 59 | 136 | 0.0 | 5.0 | 0.00 | 0.00 | 0.00 | 95 | 1004.0 |
| 20260831035835 | 59 | 203 | 1.0 | 3.0 | 0.00 | 0.00 | 0.00 | 95 | 1004.1 |
| 20260831035324 | 59 | 239 | 1.0 | 3.0 | 0.00 | 0.00 | 0.00 | 95 | 1004.0 |
| 20260831034834 | 59 | 298 | 1.0 | 6.0 | 0.00 | 0.00 | 0.00 | 95 | 1004.0 |
| 20260831034342 | 60 | 172 | 2.0 | 6.0 | 0.00 | 0.00 | 0.00 | 95 | 1004.0 |
| 20260831033831 | 60 | 281 | 0.0 | 2.0 | 0.00 | 0.00 | 0.00 | 95 | 1004.0 |
| 20260831033324 | 60 | 277 | 1.0 | 3.0 | 0.00 | 0.00 | 0.00 | 95 | 1003.9 |
| 20260831032832 | 60 | 307 | 1.0 | 3.0 | 0.00 | 0.00 | 0.00 | 95 | 1003.9 |
| 20260831032356 | 60 | 284 | 1.0 | 5.0 | 0.00 | 0.00 | 0.00 | 95 | 1004.0 |
| 20260831031828 | 60 | 268 | 1.0 | 5.0 | 0.00 | 0.00 | 0.00 | 95 | 1003.9 |
| 20260831031352 | 60 | 250 | 0.0 | 5.0 | 0.00 | 0.00 | 0.00 | 95 | 1003.9 |
| 20260831030824 | 60 | 287 | 2.0 | 5.0 | 0.00 | 0.00 | 0.00 | 95 | 1003.9 |
| 20260831030348 | 60 | 272 | 1.0 | 3.0 | 0.00 | 0.00 | 0.00 | 95 | 1003.9 |
| 20260831025847 | 60 | 256 | 0.0 | 3.0 | 0.00 | 0.00 | 0.00 | 95 | 1003.9 |
| 20260831025356 | 60 | 275 | 0.0 | 4.0 | 0.00 | 0.00 | 0.00 | 95 | 1003.9 |
| 20260831024843 | 60 | 297 | 2.0 | 4.0 | 0.00 | 0.00 | 0.00 | 95 | 1003.9 |
| 20260831024324 | 60 | 298 | 1.0 | 3.0 | 0.00 | 0.00 | 0.00 | 95 | 1003.8 |
| 20260831023824 | 60 | 300 | 1.0 | 3.0 | 0.00 | 0.00 | 0.00 | 95 | 1003.8 |
| 20260831023324 | 60 | 302 | 0.0 | 3.0 | 0.00 | 0.00 | 0.00 | 95 | 1003.8 |
| 20260831022845 | 60 | 284 | 1.0 | 5.0 | 0.00 | 0.00 | 0.00 | 95 | 1003.8 |
| 20260831022324 | 60 | 294 | 1.0 | 5.0 | 0.00 | 0.00 | 0.00 | 95 | 1003.8 |
| 20260831021833 | 60 | 284 | 1.0 | 7.0 | 0.00 | 0.00 | 0.00 | 95 | 1003.7 |
| 20260831021340 | 60 | 301 | 2.0 | 7.0 | 0.00 | 0.00 | 0.00 | 95 | 1003.8 |
| 20260831020827 | 60 | 288 | 2.0 | 9.0 | 0.00 | 0.00 | 0.00 | 95 | 1003.7 |
| 20260831020325 | 60 | 230 | 3.0 | 9.0 | 0.00 | 0.00 | 0.00 | 95 | 1003.7 |
| 20260831015831 | 60 | 279 | 2.0 | 5.0 | 0.00 | 0.00 | 0.00 | 95 | 1003.7 |
| 20260831015330 | 60 | 277 | 1.0 | 9.0 | 0.00 | 0.00 | 0.00 | 95 | 1003.6 |
| 20260831014828 | 60 | 288 | 3.0 | 9.0 | 0.00 | 0.00 | 0.00 | 95 | 1003.6 |
| 20260831014328 | 60 | 323 | 2.0 | 9.0 | 0.00 | 0.00 | 0.00 | 95 | 1003.5 |
| 20260831013835 | 60 | 290 | 3.0 | 10.0 | 0.00 | 0.00 | 0.00 | 95 | 1003.5 |
| 20260831013324 | 60 | 284 | 3.0 | 10.0 | 0.00 | 0.00 | 0.00 | 95 | 1003.5 |
| 20260831012833 | 60 | 277 | 5.0 | 8.0 | 0.00 | 0.00 | 0.00 | 95 | 1003.5 |
| 20260831012341 | 61 | 256 | 3.0 | 9.0 | 0.00 | 0.00 | 0.00 | 95 | 1003.4 |
| 20260831011828 | 61 | 299 | 3.0 | 9.0 | 0.00 | 0.00 | 0.00 | 95 | 1003.5 |
| 20260831011328 | 61 | 307 | 3.0 | 8.0 | 0.00 | 0.00 | 0.00 | 95 | 1003.4 |
| 20260831010827 | 61 | 331 | 2.0 | 8.0 | 0.00 | 0.00 | 0.00 | 95 | 1003.4 |
| 20260831010335 | 61 | 220 | 2.0 | 8.0 | 0.00 | 0.00 | 0.00 | 95 | 1003.4 |
| 20260831005826 | 61 | 313 | 2.0 | 10.0 | 0.00 | 0.00 | 0.00 | 95 | 1003.3 |
| 20260831005326 | 61 | 287 | 2.0 | 10.0 | 0.00 | 0.00 | 0.00 | 95 | 1003.3 |
| 20260831004827 | 62 | 268 | 4.0 | 9.0 | 0.00 | 0.00 | 0.00 | 95 | 1003.3 |
| 20260831004336 | 62 | 285 | 2.0 | 8.0 | 0.00 | 0.00 | 0.00 | 95 | 1003.2 |
| 20260831003825 | 62 | 295 | 3.0 | 8.0 | 0.00 | 0.00 | 0.00 | 95 | 1003.2 |
| 20260831003346 | 62 | 292 | 0.0 | 3.0 | 0.00 | 0.00 | 0.00 | 95 | 1003.2 |
| 20260831002835 | 62 | 292 | 1.0 | 3.0 | 0.00 | 0.00 | 0.00 | 95 | 1003.2 |
| 20260831002343 | 62 | 291 | 0.0 | 3.0 | 0.00 | 0.00 | 0.00 | 95 | 1003.2 |
| 20260831001833 | 62 | 291 | 1.0 | 2.0 | 0.00 | 0.00 | 0.00 | 95 | 1003.2 |
| 20260831001401 | 62 | 292 | 1.0 | 2.0 | 0.00 | 0.00 | 0.00 | 95 | 1003.1 |
| 20260831000828 | 62 | 291 | 1.0 | 3.0 | 0.00 | 0.00 | 0.00 | 95 | 1003.1 |
| 20260831000347 | 62 | 292 | 1.0 | 3.0 | 0.00 | 0.00 | 0.00 | 95 | 1003.2 |
| 20260830235835 | 62 | 291 | 1.0 | 3.0 | 0.00 | 0.00 | 0.00 | 95 | 1003.1 |
| 20260830235344 | 62 | 292 | 1.0 | 4.0 | 0.00 | 0.00 | 0.00 | 95 | 1003.1 |
| 20260830234833 | 62 | 292 | 2.0 | 4.0 | 0.00 | 0.00 | 0.00 | 95 | 1003.1 |
| 20260830234340 | 62 | 291 | 1.0 | 4.0 | 0.00 | 0.00 | 0.00 | 95 | 1003.1 |
| 20260830233830 | 62 | 292 | 1.0 | 5.0 | 0.00 | 0.00 | 0.00 | 95 | 1003.0 |
| 20260830233325 | 62 | 292 | 2.0 | 5.0 | 0.00 | 0.00 | 0.00 | 95 | 1003.0 |
| 20260830232847 | 62 | 292 | 1.0 | 3.0 | 0.00 | 0.00 | 0.00 | 95 | 1002.9 |
| 20260830232336 | 62 | 292 | 0.0 | 3.0 | 0.00 | 0.00 | 0.00 | 95 | 1002.8 |
| 20260830231843 | 62 | 292 | 1.0 | 3.0 | 0.00 | 0.00 | 0.00 | 95 | 1002.9 |
| 20260830231325 | 62 | 292 | 1.0 | 3.0 | 0.00 | 0.00 | 0.00 | 95 | 1002.8 |
| 20260830230825 | 62 | 292 | 1.0 | 3.0 | 0.00 | 0.00 | 0.00 | 95 | 1002.8 |
| 20260830230326 | 62 | 292 | 1.0 | 3.0 | 0.00 | 0.00 | 0.00 | 95 | 1002.7 |
| 20260830225835 | 62 | 292 | 1.0 | 3.0 | 0.00 | 0.00 | 0.00 | 95 | 1002.6 |
| 20260830225328 | 62 | 292 | 1.0 | 4.0 | 0.00 | 0.00 | 0.00 | 95 | 1002.6 |
| 20260830224829 | 62 | 292 | 1.0 | 5.0 | 0.00 | 0.00 | 0.00 | 95 | 1002.6 |
| 20260830224330 | 62 | 292 | 2.0 | 5.0 | 0.00 | 0.00 | 0.00 | 95 | 1002.6 |
| 20260830223839 | 62 | 292 | 2.0 | 4.0 | 0.00 | 0.00 | 0.00 | 95 | 1002.7 |
| 20260830223327 | 62 | 292 | 1.0 | 4.0 | 0.00 | 0.00 | 0.00 | 95 | 1002.6 |
| 20260830222829 | 62 | 292 | 1.0 | 4.0 | 0.00 | 0.00 | 0.00 | 95 | 1002.5 |
| 20260830222329 | 62 | 292 | 1.0 | 4.0 | 0.00 | 0.00 | 0.00 | 95 | 1002.5 |
| 20260830221828 | 62 | 292 | 2.0 | 4.0 | 0.00 | 0.00 | 0.00 | 95 | 1002.4 |
| 20260830221328 | 62 | 292 | 0.0 | 7.0 | 0.00 | 0.00 | 0.00 | 95 | 1002.4 |
| 20260830220829 | 62 | 292 | 2.0 | 7.0 | 0.00 | 0.00 | 0.00 | 95 | 1002.4 |
| 20260830220336 | 62 | 306 | 2.0 | 4.0 | 0.00 | 0.00 | 0.00 | 95 | 1002.3 |
| 20260830215825 | 62 | 297 | 1.0 | 5.0 | 0.00 | 0.00 | 0.00 | 95 | 1002.3 |
| 20260830215332 | 62 | 287 | 2.0 | 5.0 | 0.00 | 0.00 | 0.00 | 95 | 1002.3 |
| 20260830214828 | 62 | 287 | 1.0 | 5.0 | 0.00 | 0.00 | 0.00 | 95 | 1002.2 |
| 20260830214349 | 62 | 287 | 2.0 | 5.0 | 0.00 | 0.00 | 0.00 | 95 | 1002.2 |
| 20260830213848 | 62 | 290 | 1.0 | 4.0 | 0.00 | 0.00 | 0.00 | 95 | 1002.2 |
| 20260830213326 | 62 | 283 | 1.0 | 4.0 | 0.00 | 0.00 | 0.00 | 95 | 1002.1 |
| 20260830212836 | 62 | 298 | 1.0 | 3.0 | 0.00 | 0.00 | 0.00 | 95 | 1002.2 |
| 20260830211832 | 62 | 313 | 0.0 | 2.0 | 0.00 | 0.00 | 0.00 | 95 | 1002.2 |
| 20260830211340 | 62 | 175 | 1.0 | 2.0 | 0.00 | 0.00 | 0.00 | 94 | 1002.2 |
| 20260830210849 | 62 | 175 | 0.0 | 2.0 | 0.00 | 0.00 | 0.00 | 94 | 1002.2 |
| 20260830210329 | 62 | 175 | 1.0 | 2.0 | 0.00 | 0.00 | 0.00 | 94 | 1002.1 |
| 20260830205835 | 63 | 153 | 0.0 | 2.0 | 0.00 | 0.00 | 0.00 | 94 | 1002.2 |
| 20260830205342 | 63 | 152 | 0.0 | 3.0 | 0.00 | 0.00 | 0.00 | 94 | 1002.2 |
| 20260830204849 | 63 | 153 | 1.0 | 3.0 | 0.00 | 0.00 | 0.00 | 94 | 1002.1 |
| 20260830204336 | 63 | 231 | 2.0 | 2.0 | 0.00 | 0.00 | 0.00 | 94 | 1002.2 |
| 20260830203826 | 62 | 275 | 0.0 | 2.0 | 0.00 | 0.00 | 0.00 | 94 | 1002.2 |
| 20260830203347 | 62 | 276 | 1.0 | 2.0 | 0.00 | 0.00 | 0.00 | 94 | 1002.2 |
| 20260830202825 | 62 | 121 | 0.0 | 2.0 | 0.00 | 0.00 | 0.00 | 94 | 1002.2 |
| 20260830202326 | 62 | 121 | 0.0 | 2.0 | 0.00 | 0.00 | 0.00 | 94 | 1002.2 |
| 20260830201835 | 62 | 121 | 0.0 | 1.0 | 0.00 | 0.00 | 0.00 | 94 | 1002.2 |
| 20260830201324 | 62 | 121 | 0.0 | 1.0 | 0.00 | 0.00 | 0.00 | 94 | 1002.2 |
| 20260830200825 | 62 | 121 | 0.0 | 2.0 | 0.00 | 0.00 | 0.00 | 94 | 1002.1 |
| 20260830200325 | 62 | 121 | 1.0 | 2.0 | 0.00 | 0.00 | 0.00 | 94 | 1002.1 |
| 20260830195827 | 62 | 121 | 1.0 | 3.0 | 0.00 | 0.00 | 0.00 | 94 | 1002.1 |
| 20260830195327 | 63 | 121 | 1.0 | 3.0 | 0.00 | 0.00 | 0.00 | 94 | 1002.2 |
| 20260830194856 | 62 | 121 | 1.0 | 3.0 | 0.00 | 0.00 | 0.00 | 94 | 1002.1 |
| 20260830194324 | 63 | 128 | 2.0 | 3.0 | 0.00 | 0.00 | 0.00 | 94 | 1002.1 |
| 20260830193845 | 63 | 128 | 2.0 | 3.0 | 0.00 | 0.00 | 0.00 | 94 | 1002.1 |
| 20260830193345 | 63 | 128 | 1.0 | 3.0 | 0.00 | 0.00 | 0.00 | 94 | 1002.1 |
| 20260830192826 | 63 | 119 | 1.0 | 2.0 | 0.00 | 0.00 | 0.00 | 94 | 1002.2 |
| 20260830192326 | 63 | 119 | 0.0 | 0.0 | 0.00 | 0.00 | 0.00 | 94 | 1002.1 |
| 20260830191824 | 63 | 119 | 0.0 | 2.0 | 0.00 | 0.00 | 0.00 | 96 | 1002.2 |
| 20260830191324 | 63 | 119 | 0.0 | 2.0 | 0.00 | 0.00 | 0.00 | 93 | 1002.1 |
| 20260830190824 | 63 | 119 | 0.0 | 2.0 | 0.00 | 0.00 | 0.00 | 94 | 1002.2 |
| 20260830190324 | 63 | 119 | 0.0 | 2.0 | 0.00 | 0.00 | 0.00 | 94 | 1002.2 |
| 20260830185851 | 63 | 119 | 0.0 | 3.0 | 0.00 | 0.00 | 0.00 | 94 | 1002.2 |
| 20260830185329 | 63 | 119 | 2.0 | 3.0 | 0.00 | 0.00 | 0.00 | 93 | 1002.2 |
| 20260830184830 | 63 | 119 | 0.0 | 2.0 | 0.00 | 0.00 | 0.00 | 93 | 1002.2 |
| 20260830184329 | 63 | 119 | 1.0 | 3.0 | 0.00 | 0.00 | 0.00 | 93 | 1002.2 |
| 20260830183829 | 63 | 119 | 1.0 | 3.0 | 0.00 | 0.00 | 0.00 | 93 | 1002.3 |
| 20260830183330 | 63 | 119 | 1.0 | 3.0 | 0.00 | 0.00 | 0.00 | 93 | 1002.3 |
| 20260830182851 | 63 | 119 | 0.0 | 2.0 | 0.00 | 0.00 | 0.00 | 93 | 1002.4 |
| 20260830182330 | 63 | 119 | 0.0 | 2.0 | 0.00 | 0.00 | 0.00 | 93 | 1002.4 |
| 20260830181830 | 63 | 119 | 1.0 | 2.0 | 0.00 | 0.00 | 0.00 | 93 | 1002.5 |
| 20260830181338 | 63 | 119 | 0.0 | 2.0 | 0.00 | 0.00 | 0.00 | 93 | 1002.4 |
| 20260830180827 | 63 | 119 | 1.0 | 2.0 | 0.00 | 0.00 | 0.00 | 92 | 1002.4 |
| 20260830180334 | 63 | 119 | 1.0 | 2.0 | 0.00 | 0.00 | 0.00 | 92 | 1002.4 |
| 20260830175824 | 64 | 119 | 0.0 | 3.0 | 0.00 | 0.00 | 0.00 | 91 | 1002.4 |
| 20260830175325 | 64 | 119 | 1.0 | 3.0 | 0.00 | 0.00 | 0.00 | 91 | 1002.5 |
| 20260830174825 | 64 | 119 | 0.0 | 3.0 | 0.00 | 0.00 | 0.00 | 91 | 1002.5 |
| 20260830174327 | 64 | 119 | 1.0 | 3.0 | 0.00 | 0.00 | 0.00 | 91 | 1002.5 |
| 20260830173827 | 64 | 120 | 2.0 | 3.0 | 0.00 | 0.00 | 0.00 | 90 | 1002.4 |
| 20260830173336 | 65 | 122 | 2.0 | 3.0 | 0.00 | 0.00 | 0.00 | 89 | 1002.5 |
| 20260830172824 | 65 | 96 | 1.0 | 5.0 | 0.00 | 0.00 | 0.00 | 89 | 1002.5 |
| 20260830172352 | 65 | 106 | 2.0 | 5.0 | 0.00 | 0.00 | 0.00 | 88 | 1002.6 |
| 20260830171830 | 65 | 146 | 2.0 | 5.0 | 0.00 | 0.00 | 0.00 | 88 | 1002.6 |
| 20260830171351 | 66 | 148 | 2.0 | 5.0 | 0.00 | 0.00 | 0.00 | 87 | 1002.5 |
| 20260830170850 | 66 | 153 | 2.0 | 5.0 | 0.00 | 0.00 | 0.00 | 86 | 1002.5 |
| 20260830170330 | 66 | 186 | 1.0 | 4.0 | 0.00 | 0.00 | 0.00 | 86 | 1002.5 |
| 20260830165851 | 66 | 115 | 1.0 | 5.0 | 0.00 | 0.00 | 0.00 | 86 | 1002.5 |
| 20260830165331 | 66 | 98 | 2.0 | 3.0 | 0.00 | 0.00 | 0.00 | 86 | 1002.5 |
| 20260830164830 | 66 | 88 | 1.0 | 4.0 | 0.00 | 0.00 | 0.00 | 86 | 1002.5 |
| 20260830164340 | 66 | 155 | 1.0 | 2.0 | 0.00 | 0.00 | 0.00 | 86 | 1002.5 |
| 20260830163829 | 66 | 155 | 0.0 | 3.0 | 0.00 | 0.00 | 0.00 | 85 | 1002.6 |
| 20260830163349 | 66 | 155 | 2.0 | 3.0 | 0.00 | 0.00 | 0.00 | 85 | 1002.6 |
| 20260830162837 | 66 | 169 | 2.0 | 4.0 | 0.00 | 0.00 | 0.00 | 85 | 1002.6 |
| 20260830162325 | 66 | 171 | 2.0 | 4.0 | 0.00 | 0.00 | 0.00 | 85 | 1002.5 |
| 20260830161854 | 66 | 169 | 1.0 | 3.0 | 0.00 | 0.00 | 0.00 | 85 | 1002.6 |
| 20260830161359 | 66 | 169 | 1.0 | 4.0 | 0.00 | 0.00 | 0.00 | 85 | 1002.6 |
| 20260830160828 | 66 | 105 | 2.0 | 3.0 | 0.00 | 0.00 | 0.00 | 85 | 1002.6 |
| 20260830160329 | 66 | 168 | 1.0 | 7.0 | 0.00 | 0.00 | 0.00 | 85 | 1002.6 |
| 20260830155829 | 66 | 159 | 1.0 | 3.0 | 0.00 | 0.00 | 0.00 | 85 | 1002.6 |
| 20260830155330 | 66 | 163 | 1.0 | 5.0 | 0.00 | 0.00 | 0.00 | 85 | 1002.7 |
| 20260830154831 | 66 | 148 | 2.0 | 5.0 | 0.00 | 0.00 | 0.00 | 85 | 1002.7 |
| 20260830154331 | 66 | 190 | 1.0 | 5.0 | 0.00 | 0.00 | 0.00 | 85 | 1002.8 |
| 20260830153831 | 66 | 133 | 3.0 | 4.0 | 0.00 | 0.00 | 0.00 | 84 | 1002.8 |
| 20260830153350 | 66 | 180 | 1.0 | 5.0 | 0.00 | 0.00 | 0.00 | 85 | 1002.8 |
| 20260830152837 | 66 | 200 | 2.0 | 6.0 | 0.00 | 0.00 | 0.00 | 84 | 1002.9 |
| 20260830152326 | 66 | 200 | 3.0 | 8.0 | 0.00 | 0.00 | 0.00 | 84 | 1003.0 |
| 20260830151834 | 66 | 200 | 3.0 | 8.0 | 0.00 | 0.00 | 0.00 | 84 | 1003.1 |
| 20260830151324 | 66 | 158 | 0.0 | 9.0 | 0.00 | 0.00 | 0.00 | 85 | 1003.1 |
| 20260830150831 | 66 | 135 | 4.0 | 6.0 | 0.00 | 0.00 | 0.00 | 84 | 1003.1 |
| 20260830150339 | 66 | 151 | 3.0 | 8.0 | 0.00 | 0.00 | 0.00 | 84 | 1003.1 |
| 20260830145846 | 67 | 149 | 4.0 | 8.0 | 0.00 | 0.00 | 0.00 | 84 | 1003.1 |
| 20260830145333 | 67 | 167 | 4.0 | 11.0 | 0.00 | 0.00 | 0.00 | 84 | 1003.0 |
| 20260830144841 | 67 | 153 | 2.0 | 11.0 | 0.00 | 0.00 | 0.00 | 84 | 1003.1 |
| 20260830144329 | 67 | 190 | 3.0 | 8.0 | 0.00 | 0.00 | 0.00 | 83 | 1003.1 |
| 20260830143828 | 67 | 219 | 2.0 | 5.0 | 0.00 | 0.00 | 0.00 | 84 | 1003.1 |
| 20260830143330 | 66 | 200 | 2.0 | 7.0 | 0.00 | 0.00 | 0.00 | 84 | 1003.2 |
| 20260830142839 | 66 | 182 | 3.0 | 7.0 | 0.00 | 0.00 | 0.00 | 84 | 1003.2 |
| 20260830142328 | 66 | 182 | 2.0 | 8.0 | 0.00 | 0.00 | 0.00 | 85 | 1003.2 |
| 20260830141828 | 66 | 192 | 3.0 | 7.0 | 0.00 | 0.00 | 0.00 | 85 | 1003.2 |
| 20260830141349 | 66 | 221 | 2.0 | 7.0 | 0.00 | 0.00 | 0.00 | 86 | 1003.3 |
| 20260830140850 | 66 | 178 | 2.0 | 7.0 | 0.00 | 0.00 | 0.00 | 86 | 1003.3 |
| 20260830140330 | 66 | 186 | 3.0 | 7.0 | 0.00 | 0.00 | 0.00 | 86 | 1003.3 |
| 20260830135831 | 66 | 172 | 3.0 | 8.0 | 0.00 | 0.00 | 0.00 | 86 | 1003.4 |
| 20260830135400 | 66 | 191 | 3.0 | 8.0 | 0.00 | 0.00 | 0.00 | 86 | 1003.4 |
| 20260830134828 | 66 | 192 | 2.0 | 6.0 | 0.00 | 0.00 | 0.00 | 87 | 1003.4 |
| 20260830134329 | 66 | 201 | 3.0 | 7.0 | 0.00 | 0.00 | 0.00 | 86 | 1003.5 |
| 20260830133830 | 66 | 84 | 4.0 | 7.0 | 0.00 | 0.00 | 0.00 | 87 | 1003.5 |
| 20260830133351 | 65 | 298 | 3.0 | 6.0 | 0.00 | 0.00 | 0.00 | 88 | 1003.5 |
| 20260830132851 | 65 | 153 | 3.0 | 7.0 | 0.00 | 0.00 | 0.00 | 88 | 1003.5 |
| 20260830132340 | 65 | 174 | 2.0 | 7.0 | 0.00 | 0.00 | 0.00 | 88 | 1003.5 |